Regional Weather Roundup
Issued by NWS

Home | Current Version | Previous Version | Graphics & Text | Print | Product List | Glossary On
Versions: 1 2 3 4 5 6 7 8 9 10 11 12 13 14 15 16 17 18 19 20 21 22 23 24 25 26 27
000
ASUS45 KSLC 232310
RWRUT

UTAH REGIONAL WEATHER ROUNDUP
NATIONAL WEATHER SERVICE SALT LAKE CITY UT
500 PM MDT TUE AUG 23 2016

UTZ001>011-023>025-240000-

NORTHERN UTAH

CITY           SKY/WX    TMP DP  RH WIND       PRES   REMARKS
BRIGHAM CITY     N/A     87  13   6 CALM      30.03F
HILL AFB       MOSUNNY   84  29  13 VRB5G20   30.07F
LOGAN          SUNNY     85  25  11 W13       30.04F
OGDEN          SUNNY     85  25  11 NW9       30.04F
PROVO AIRPORT  MOSUNNY   84  45  24 VRB5      30.04F
SALT LAKE CITY MOSUNNY   90  28  11 N15       30.02F
VERNAL         CLOUDY    80  36  20 N10       30.08F
WENDOVER       MOSUNNY   88  30  12 SE14      30.01F
HEBER CITY     MOSUNNY   84  30  14 W12G18    30.09F
WEST JORDAN    SUNNY     85  35  16 N17G24    30.05F

$$

UTZ012>022-026-027-240000-

SOUTHERN/CENTRAL UTAH

CITY           SKY/WX    TMP DP  RH WIND       PRES   REMARKS
BLANDING       CLOUDY    65  49  55 SE23G29   30.33R
BRYCE CANYON   CLOUDY    58  48  69 W6        30.34F
CEDAR CITY     MOSUNNY   82  42  24 SW9       30.14F
DELTA          SUNNY     86  30  13 NW9       30.05F
MILFORD        MOSUNNY   83  40  21 S8        30.08F
MOAB/CYNLANDS  CLOUDY    77  51  40 SE12      30.07F
PRICE          PTSUNNY   73  41  31 SW7       30.13F
ST GEORGE      PTCLDY    88  48  25 W8G17     30.02F

$$

REGIONAL REPORTS     COLORADO/ARIZONA

CITY           SKY/WX    TMP DP  RH WIND       PRES   REMARKS
CRAIG, CO      CLOUDY    78  32  18 S10       30.12F
GRAND JUNCTION CLOUDY    78  47  33 W7        30.10S
RIFLE          CLOUDY    78  46  32 E7        30.11F
MONTROSE       CLOUDY    66  48  52 SE10      30.20F
CORTEZ         RAIN      56  54  93 E10       30.28S FOG
PAGE, AZ       PTSUNNY   81  45  28 NW6       30.09F
GRAND CANYON   PTSUNNY   68  49  50 S8        30.27F
KINGMAN        SUNNY     84  53  34 VRB7      30.09F
FLAGSTAFF      PTSUNNY   60  49  66 W8        30.32R

$$

REGIONAL REPORTS    NEVADA/IDAHO/WYOMING

CITY           SKY/WX    TMP DP  RH WIND       PRES   REMARKS
LAS VEGAS, NV  MOSUNNY   90  56  31 E6        29.94F
ELY            PTSUNNY   82  27  13 NW6       30.16F
ELKO           SUNNY     87  18   8 W29G43    30.10F
POCATELLO, ID  SUNNY     80  22  11 W20       30.10S
BURLEY         SUNNY     75  30  19 W14G24    30.08F
EVANSTON, WY   SUNNY     75  25  15 W17G32    30.22F
ROCK SPRINGS   CLOUDY    78  23  13 W30G38    30.14F

$$




USA.gov is the U.S. government's official web portal to all federal, state and local government web resources and services.